Location: Montgomery
(32.3670°N, 86.3000°W)
Time: 12:46:52
(UTC-05:00)

Tiangong 2 - Visible Passes

Search period start: 23 July 2018 00:00
Search period end: 02 August 2018 00:00
Orbit: 386 x 394 km, 42.8° (Epoch: 22 July)

Date Brightness Start Highest point End Pass type
(mag) Time Alt. Az. Time Alt. Az. Time Alt. Az.
23 Jul 2.3 20:57:58 10° NW 21:00:55 34° NNE 21:02:33 20° ENE visible
24 Jul 1.7 21:36:57 10° WNW 21:39:40 52° WSW 21:39:40 52° WSW visible
25 Jul 1.2 20:39:13 10° NW 20:42:23 68° NNE 20:44:32 19° ESE visible
26 Jul 2.6 21:18:41 10° W 21:21:22 25° SW 21:21:46 24° SSW visible
27 Jul 1.6 20:20:37 10° WNW 20:23:44 51° SW 20:26:44 11° SE visible
28 Jul 3.8 21:01:27 10° WSW 21:02:31 11° SW 21:03:35 10° SSW visible
